Terminal Aerodrome Forecast
Issued by NWS Caribou, ME

Home | Current Version | Previous Version | Text Only | Print | Product List | Glossary On
Versions: 1 2 3 4 5 6 7 8 9 10 11 12
000
FTUS41 KCAR 222300
TAFCAR
TAF
KCAR 222335Z 2300/2324 24008KT P6SM SCT250
     FM231400 22010G17KT P6SM SCT050 BKN200
     FM231700 21012G20KT 6SM SHRA VCTS SCT035CB OVC120=

USA.gov is the U.S. government's official web portal to all federal, state and local government web resources and services.